This demonstration page uses our WeatherBlox Daily Observations layout. Learn more.

Left ArrowRight Arrow

Hourly Observations for April 1, 2016

Temp ( °F °C ) Dew Point ( °F °C ) Humidity (%) Winds ( mph kmh ) Pressure ( in mb ) Visibility ( mi km ) Precip ( " mm )
12:51 am 00:51 Clear 48 8.9 23 -5 37 37 NNW 7 11 29.91 1013 10 16 0.00 0.00
1:51 am 01:51 Clear 47 8.3 22 -5.6 37 37 NNW 8 13 29.91 1013 10 16 0.00 0.00
2:51 am 02:51 Clear 47 8.3 22 -5.6 37 37 NNW 9 15 29.90 1013 10 16 0.00 0.00
3:51 am 03:51 Clear 43 6.1 23 -5 45 45 S 6 9 29.91 1013 10 16 0.00 0.00
4:51 am 04:51 Clear 38 3.3 20 -6.7 48 48 ENE 3 6 29.93 1013 10 16 0.00 0.00
5:51 am 05:51 Clear 38 3.3 20 -6.7 48 48 Calm 29.94 1014 10 16 0.00 0.00
6:51 am 06:51 Sunny 40 4.4 20 -6.7 45 45 SSE 9 15 29.97 1015 10 16 0.00 0.00
7:51 am 07:51 Sunny 48 8.9 22 -5.6 36 36 Calm 29.98 1015 10 16 0.00 0.00
8:51 am 08:51 Sunny 55 12.8 23 -5 29 29 SW 5 7 29.98 1015 10 16 0.00 0.00
9:51 am 09:51 Sunny 62 16.7 20 -6.7 20 20 W 10 17 29.98 1015 10 16 0.00 0.00
10:51 am 10:51 Sunny 64 17.8 21 -6.1 19 19 NW 13 20 29.98 1015 10 16 0.00 0.00
11:51 am 11:51 Sunny 66 18.9 22 -5.6 19 19 NW 9 15 29.96 1015 10 16 0.00 0.00
12:51 pm 12:51 Sunny 68 20 19 -7.2 15 15 W 7 11 29.94 1014 10 16 0.00 0.00
1:51 pm 13:51 Sunny 71 21.7 13 -10.6 10 10 WNW 12 19 29.93 1013 10 16 0.00 0.00
2:51 pm 14:51 Partly Cloudy 69 20.6 15 -9.4 12 12 SW 8 13 29.92 1013 10 16 0.00 0.00
3:51 pm 15:51 Mostly Cloudy 69 20.6 25 -3.9 19 19 NE 14 22 29.94 1014 10 16 0.00 0.00
4:51 pm 16:51 Sunny 69 20.6 23 -5 17 17 VRB 7 11 29.95 1014 10 16 0.00 0.00
5:51 pm 17:51 Sunny 68 20 19 -7.2 15 15 WNW 13 20 29.98 1015 10 16 0.00 0.00
6:17 pm 18:17 Sunny 67 19.4 23 -5 19 19 NNW 12 19 29.94 1014 10 16 0.00 0.00
6:51 pm 18:51 Clear 65 18.3 23 -5 20 20 NNW 14 22 30.01 1016 10 16 0.00 0.00
7:51 pm 19:51 Mostly Clear 61 16.1 30 -1.1 31 31 NNE 16 26 30.04 1017 10 16 0.00 0.00
8:51 pm 20:51 Mostly Cloudy 60 15.6 29 -1.7 31 31 E 10 17 30.06 1018 10 16 0.00 0.00
9:51 pm 21:51 Mostly Clear 58 14.4 30 -1.1 35 35 SE 8 13 30.07 1018 10 16 0.00 0.00
10:51 pm 22:51 Clear 54 12.2 29 -1.7 38 38 ESE 7 11 30.08 1019 10 16 0.00 0.00
11:51 pm 23:51 Clear 54 12.2 31 -0.6 42 42 SSE 10 17 30.09 1019 10 16 0.00 0.00

Powered by AerisWeather